Вернуться в каталог

FENGYUN 1C DEB

АктивенSSO
NORAD 31081·DEBRIS·🇨🇳 China

Запущен May 10, 1999 с Taiyuan Satellite Launch Center

Loading…

Ближайшие Пролёты (ближайшие 24 часа)

TLE

СвежийSource: Space-Track

Эпоха: Sep 13, 2026, 07:26 UTC

1 31081U 99025BGB 26256.31028917  .00000034  00000-0  45756-4 0  9998
2 31081  98.7603 269.0500 0048195 178.3069 195.7025 14.06347433  3110

Отслеживайте FENGYUN 1C DEB в реальном времени с AllMySat

Download on the App Store